#timestamp,LO_Frequency,Hit,StdDev 
1604685615.6,286046998.9,Y
1604685635.5,286047000.7,P
1604685655.3,286047000.3,N
1604685675.1,286046998.3,N
1604685695.9,286047000.8,N
1604685715.7,286047001.0,N
1604685735.5,286046998.3,N
1604685755.4,286047000.8,N
1604685775.2,286047001.1,N
1604685795.0,286047000.7,N
1604685795.9,286047000.7,N
1604685815.8,286047000.5,N
1604685835.6,286047000.0,N
1604685855.4,286047002.4,N
1604685875.3,286047000.8,N
1604685895.1,286047000.3,N
1604685896.0,286047000.3,N
1604685915.8,286047000.0,N
1604685935.7,286047002.8,N
1604685955.5,286047000.0,N
1604685975.3,286047001.0,N
1604685995.2,286047001.0,N
1604686015.9,286047000.9,N
1604686035.7,286046998.4,N
1604686055.6,286047000.5,N
1604686075.4,286047000.8,N
1604686095.2,286047000.7,N
1604686115.1,286046998.6,N
1604686116.0,286046998.6,N
1604686135.8,286047000.7,N
1604686155.6,286047000.7,N
1604686175.5,286047000.6,N
1604686195.3,286046998.1,N
1604686215.1,286047001.2,N
1604686235.9,286047000.8,N
1604686255.7,286047001.2,N
1604686275.5,286046998.2,N
1604686295.3,286046998.6,N
1604686315.2,286046998.2,N
1604686335.0,286046998.1,N
1604686335.9,286046998.1,N
1604686355.7,286047001.2,N
1604686375.6,286047001.2,N
1604686395.4,286046998.6,N
1604686415.2,286047001.1,N
1604686435.1,286047000.7,N
1604686436.0,286047000.7,N
1604686455.8,286047000.8,N
1604686475.6,286046998.9,N
1604686495.5,286046998.4,N
1604686515.3,286046996.6,N
1604686535.1,286046999.0,N
1604686555.9,286046998.9,N
1604686575.7,286046999.0,N
1604686595.5,286046999.4,N
1604686615.4,286046997.9,N
1604686635.2,286046996.5,N
1604686655.0,286046996.8,N
1604686655.9,286046996.8,N
1604686675.8,286046997.7,N
1604686695.6,286046995.7,N
1604686715.4,286046997.4,N
1604686735.3,286046994.9,Y
1604686755.1,286046996.9,P
1604686756.0,286046996.9,P
1604686775.8,286046999.6,N
1604686795.7,286046996.9,N
1604686815.5,286046999.6,N
1604686835.3,286046996.9,N
1604686855.2,286046996.8,N
1604686875.9,286046997.7,N
1604686895.7,286046997.1,N
1604686915.6,286046996.7,Y
1604686935.4,286047001.2,P
1604686955.2,286046998.4,N
1604686975.1,286046998.1,N
1604686976.0,286046998.1,N
1604686995.8,286047000.7,N
1604687015.6,286046999.0,N
1604687035.5,286046999.6,N
1604687055.3,286046996.6,N
1604687075.1,286046996.9,N
1604687095.8,286046997.7,N
1604687115.7,286046996.5,N
1604687135.5,286046997.0,N
1604687155.3,286046999.6,N
1604687175.2,286046997.4,N
1604687195.0,286046996.8,N
1604687195.9,286046996.8,N
1604687215.7,286046997.3,N
1604687235.6,286046997.3,N
1604687255.4,286046996.7,N
1604687275.2,286046997.2,N
1604687295.1,286046997.7,N
1604687296.0,286046997.7,N
1604687315.8,286046995.5,Y
1604687335.6,286046999.4,P
1604687355.5,286046998.3,N
1604687375.3,286046998.9,N
1604687395.1,286046998.3,Y
1604687415.9,286047000.9,P
1604687435.7,286047002.7,N
1604687455.5,286047000.1,N
1604687475.4,286047000.0,N
1604687495.2,286047000.1,N
1604687515.0,286047001.0,N
1604687515.9,286047001.0,N
1604687535.8,286047000.4,N
1604687555.6,286047000.9,N
1604687575.4,286047000.9,N
1604687595.3,286047001.2,N
1604687615.1,286047001.2,N
1604687635.8,286047000.8,N
1604687655.7,286046999.0,N
1604687675.5,286046999.3,N
1604687695.3,286046998.8,N
1604687715.2,286046998.5,N
1604687735.9,286046999.3,N
1604687755.7,286047000.5,N
1604687775.6,286046998.1,N
1604687795.4,286046998.1,N
1604687815.2,286046999.0,N
1604687835.1,286046998.4,N
1604687836.0,286046998.4,N
1604687855.8,286046998.4,N
1604687875.6,286046998.8,N
1604687895.5,286047001.2,N
1604687915.3,286046998.7,N
1604687935.1,286046998.7,N
1604687955.9,286046999.5,N
1604687975.7,286046998.7,N
1604687995.5,286046998.4,N
1604688015.4,286046999.4,N
1604688035.2,286046999.5,N
1604688055.0,286046999.2,N
1604688055.9,286046999.2,N
1604688075.8,286046999.3,N
1604688095.6,286046999.1,N
1604688115.4,286046999.1,N
1604688135.3,286046996.6,Y
1604688155.1,286046999.3,P
1604688156.0,286046999.3,P
1604688175.8,286046999.0,P
1604688195.7,286046999.4,Y
1604688215.5,286046998.6,P
1604688235.3,286047000.6,N
1604688255.2,286046998.7,N
1604688275.9,286047000.8,N
1604688295.7,286047000.8,N
1604688315.6,286047000.6,N
1604688335.4,286046998.5,N
1604688355.2,286047001.0,N
1604688375.1,286046998.2,N
1604688376.0,286046998.2,N
1604688395.8,286046998.2,N
1604688415.6,286047001.0,N
1604688435.5,286047000.9,N
1604688455.3,286046998.1,N
1604688475.1,286046998.6,N
1604688495.9,286046998.5,N
1604688515.7,286047000.8,N
1604688535.5,286047000.4,N
1604688555.4,286047000.9,N
1604688575.2,286047000.4,N
1604688595.0,286047000.4,N
1604688595.9,286047000.4,N
1604688615.8,286047000.3,N
1604688635.6,286047000.7,N
1604688655.4,286047000.0,N
1604688675.3,286046999.9,N
1604688695.1,286047000.4,N
1604688696.0,286047000.4,N
1604688715.8,286047000.7,N
1604688735.7,286047000.0,N
1604688755.5,286047000.6,N
1604688775.3,286047000.5,N
1604688795.2,286046999.8,N
1604688815.9,286047000.4,N
1604688835.7,286047001.0,N
1604688855.6,286047000.4,N
1604688875.4,286047000.0,N
1604688895.2,286046999.7,N
1604688915.1,286047002.8,Y
1604688916.0,286047002.8,P
1604688935.8,286047002.8,N
1604688955.6,286047002.6,N
1604688975.5,286047002.5,N
1604688995.3,286047002.7,N
1604689015.1,286047001.3,N
1604689035.9,286047004.0,Y
1604689055.7,286047000.3,P
1604689075.5,286046999.7,N
1604689095.4,286047001.6,N
1604689115.2,286047002.5,N
1604689135.0,286047002.0,N
1604689135.9,286047002.0,N
1604689155.8,286047001.8,N
1604689175.6,286047001.8,N
1604689195.4,286047001.7,N
